Weather History for Riverside March, CA

Change the Weather History Date:

Tuesday, January 14, 2014

  Actual Average Record
Temperature  
Mean Temperature 60 °F -  
Max Temperature 79 °F 64 °F 80 °F (2009)
Min Temperature 42 °F 39 °F 19 °F (2007)
Degree Days  
Heating Degree Days 4    
Growing Degree Days 10 (Base 50)    
Moisture  
Dew Point 13 °F    
Average Humidity 19    
Maximum Humidity 38    
Minimum Humidity 6    
Precipitation  
Precipitation 0.00 in - - ()
Sea Level Pressure  
Sea Level Pressure 30.29 in    
Wind  
Wind Speed 5 mph (NNW)    
Max Wind Speed 13 mph    
Max Gust Speed 20 mph    
Visibility 10 miles    
Events      
Averages and records for this station are not official NWS values.
T = Trace of Precipitation, MM = Missing Value Source: NWS Daily Summary

Daily Weather History Graph

Daily Weather History Graph

Search for Another Location

Airport:

Trip Planner

Search our weather history database for the weather conditions in past years. The results will help you decide how hot, cold, wet, or windy it might be!

Date:

Astronomy

Jan. 14, 2014 Rise Set
Actual Time 6:54 AM PST 5:02 PM PST
Civil Twilight 6:27 AM PST 5:29 PM PST
Nautical Twilight 5:56 AM PST 6:00 PM PST
Astronomical Twilight 5:26 AM PST 6:30 PM PST
Moon 4:10 PM PST (1/14) 5:33 AM PST (1/14)
Length of Visible Light 11h 02m
Length of Day
10h 08m
Waxing Gibbous, 98% of the Moon is Illuminated
Jan 14
Waxing Gibbous
Jan 15
Full
Jan 23
Last Quarter
Jan 30
New
Feb 6
First Quarter

Hourly Weather History & Observations

Time (PST) Temp. Windchill Dew Point Humidity Pressure Visibility Wind Dir Wind Speed Gust Speed Precip Events Conditions
12:58 AM 43.3 °F - 19.2 °F 38% 30.30 in 10.0 mi NW 2.3 mph - N/A   Clear
1:58 AM 42.8 °F - 17.6 °F 36% 30.30 in 10.0 mi NE 2.3 mph - N/A   Clear
2:58 AM 48.0 °F - 19.6 °F 32% 30.30 in 10.0 mi NNE 4.6 mph - N/A   Clear
3:58 AM 42.4 °F 37.5 °F 18.3 °F 38% 30.30 in 10.0 mi West 8.1 mph - N/A   Clear
4:58 AM 43.0 °F - 18.0 °F 37% 30.31 in 10.0 mi North 1.2 mph - N/A   Clear
5:58 AM 55.0 °F - 16.0 °F 22% 30.31 in 10.0 mi West 9.2 mph - N/A   Clear
6:58 AM 43.7 °F - 16.7 °F 34% 30.34 in 10.0 mi Calm Calm - N/A   Clear
7:58 AM 46.4 °F 44.3 °F 19.8 °F 35% 30.36 in 10.0 mi NW 4.6 mph - N/A   Clear
8:58 AM 58.3 °F - 20.8 °F 23% 30.36 in 10.0 mi NNW 5.8 mph - N/A   Clear
9:58 AM 71.8 °F - 12.7 °F 10% 30.34 in 10.0 mi North 6.9 mph - N/A   Clear
10:58 AM 74.5 °F - 10.2 °F 8% 30.32 in 10.0 mi NNW 6.9 mph - N/A   Clear
11:58 AM 77.5 °F - 9.1 °F 7% 30.29 in 10.0 mi NW 12.7 mph - N/A   Clear
12:58 PM 77.9 °F - 9.5 °F 7% 30.26 in 10.0 mi North 5.8 mph - N/A   Clear
1:58 PM 79.0 °F - 10.2 °F 7% 30.24 in 10.0 mi NW 10.4 mph - N/A   Clear
2:58 PM 79.7 °F - 7.2 °F 6% 30.24 in 10.0 mi North 8.1 mph 19.6 mph N/A   Clear
3:58 PM 76.8 °F - 8.6 °F 7% 30.24 in 10.0 mi North 9.2 mph - N/A   Clear
4:58 PM 68.7 °F - 9.9 °F 10% 30.25 in 10.0 mi North 9.2 mph - N/A   Clear
5:58 PM 64.9 °F - 9.3 °F 11% 30.25 in 10.0 mi NW 2.3 mph - N/A   Clear
6:58 PM 61.5 °F - 8.6 °F 12% 30.27 in 10.0 mi North 8.1 mph - N/A   Clear
7:58 PM 59.7 °F - 9.7 °F 14% 30.28 in 10.0 mi Variable 6.9 mph - N/A   Clear
8:58 PM 59.2 °F - 9.9 °F 14% 30.28 in 10.0 mi NNW 8.1 mph - N/A   Clear
9:58 PM 57.2 °F - 10.0 °F 15% 30.27 in 10.0 mi WNW 3.5 mph - N/A   Clear
10:58 PM 55.9 °F - 12.9 °F 18% 30.27 in 10.0 mi NE 3.5 mph - N/A   Clear
11:58 PM 53.6 °F - 12.4 °F 19% 30.25 in 10.0 mi Variable 3.5 mph - N/A   Clear